Home > Weather > Almería > Past weeks

Flag for Spain Weather for the Past 2 Weeks in Almería, Spain

Now
37 °F

Chilly.


Feels Like: 34 °F
Forecast: 55 / 72 °F
Wind: 3 mph from Southwest

Location: Granada / Aeropuerto

Current Time: Feb 9, 2016 at 3:02:39 AM

Latest Report: Feb 9, 2016 at 1:00 AM


Visibility: 8 mi

Pressure: 30.46 "Hg

Humidity: 96%

Dew point: 36 °F

Location of AlmeríaLocation

Historic Weather in Almería — Graph

°F

Almería Temperature Yesterday

Maximum temperature yesterday: 60 °F (at 4:00 PM)
Minimum temperature yesterday: 33 °F (at 8:00 AM)
Average temperature yesterday: 46 °F

High & Low Weather Summary for the Past Weeks

 TemperatureHumidityPressure
High74 °F (Feb 1, 5:00 PM)100% (Jan 25, 7:00 AM)30.66 "Hg (Jan 25, 7:00 AM)
Low31 °F (Jan 27, 8:00 AM)27% (Feb 1, 5:00 PM)30.10 "Hg (Feb 7, 5:00 AM)
Average49 °F73%30.42 "Hg
* Reported Jan 24 9:00 PM — Feb 8 9:00 PM, Almería, Weather by CustomWeather, © 2016

Note: Actual official high and low records may vary slightly from our data, if they occured in-between our weather recording intervals... More about our weather records

Advertising

Almería Weather History for the Previous 24 Hours

 ConditionsComfort  
Time TempWeatherWind HumidityBarometerVisibility
9:00 PM
Mon, Feb 8
45 °FCool.6 mph83%30.42 "Hg12 mi
8:00 PM47 °FCool.6 mph82%30.43 "Hg14 mi
7:00 PM51 °FPassing clouds.6 mph74%30.41 "Hg16 mi
6:00 PM56 °FCool.10 mph62%30.39 "Hg14 mi
5:00 PM59 °FRefreshingly cool.12 mph56%30.37 "Hg14 mi
4:00 PM60 °FOvercast.8 mph56%30.37 "Hg12 mi
3:00 PM59 °FRefreshingly cool.10 mph58%30.38 "Hg14 mi
2:00 PM58 °FOvercast.9 mph53%30.40 "Hg12 mi
1:00 PM59 °FPartly sunny.3 mph54%30.41 "Hg12 mi
12:00 PM53 °FCool.1 mph66%30.44 "Hg13 mi
11:00 AM48 °FCool.No wind73%30.47 "Hg11 mi
10:00 AM42 °FOvercast.No wind83%30.50 "Hg7 mi
9:00 AM34 °FChilly.No wind99%30.51 "Hg7 mi
8:00 AM33 °FPassing clouds.1 mph99%30.51 "Hg9 mi
7:00 AM33 °FPassing clouds.No wind99%30.50 "Hg12 mi
6:00 AM33 °FChilly.No wind98%30.49 "Hg10 mi
5:00 AM35 °FChilly.No wind97%30.48 "Hg10 mi
3:00 AM34 °FChilly.No wind95%30.48 "Hg11 mi
Weather by CustomWeather, © 2016

See weather overviewHow to use our weather pages